| time (UTC) | temp F | wind direction | speed knots | gust knots | rain 1hr in | rain 24hr in | rain mn in | humidity % | barometer mb |
| 20260504080351 | 42 | 333 | 0.0 | 1.7 | 0.00 | 0.00 | 0.00 | 63 | 1015.7 |
| 20260504070331 | 45 | 336 | 0.0 | 0.9 | 0.00 | 0.00 | 0.00 | 51 | 1015.3 |
| 20260504050336 | 50 | 329 | 0.0 | 9.6 | 0.00 | 0.00 | 0.00 | 42 | 1014.0 |
| 20260504045330 | 50 | 269 | 0.9 | 8.7 | 0.00 | 0.00 | 0.00 | 41 | 1013.9 |
| 20260504044331 | 50 | 305 | 0.9 | 5.2 | 0.00 | 0.00 | 0.00 | 41 | 1013.9 |
| 20260504043336 | 50 | 348 | 0.9 | 8.7 | 0.00 | 0.00 | 0.00 | 41 | 1013.8 |
| 20260504042330 | 51 | 38 | 0.9 | 10.4 | 0.00 | 0.00 | 0.00 | 40 | 1013.6 |
| 20260504041334 | 51 | 298 | 0.9 | 5.2 | 0.00 | 0.00 | 0.00 | 39 | 1013.5 |
| 20260504040334 | 52 | 279 | 0.9 | 7.8 | 0.00 | 0.00 | 0.00 | 38 | 1013.3 |
| 20260504035333 | 52 | 313 | 1.7 | 7.8 | 0.00 | 0.00 | 0.00 | 37 | 1013.3 |
| 20260504034351 | 52 | 298 | 0.9 | 5.2 | 0.00 | 0.00 | 0.00 | 36 | 1013.1 |
| 20260504033327 | 53 | 304 | 0.9 | 7.8 | 0.00 | 0.00 | 0.00 | 35 | 1013.1 |
| 20260504032347 | 53 | 96 | 0.9 | 10.4 | 0.00 | 0.00 | 0.00 | 34 | 1012.9 |
| 20260504031330 | 54 | 248 | 1.7 | 12.2 | 0.00 | 0.00 | 0.00 | 33 | 1012.6 |
| 20260504030413 | 54 | 311 | 0.9 | 9.6 | 0.00 | 0.00 | 0.00 | 34 | 1012.4 |
| 20260504025327 | 54 | 305 | 0.9 | 14.8 | 0.00 | 0.00 | 0.00 | 34 | 1012.2 |
| 20260504024331 | 54 | 283 | 0.9 | 14.8 | 0.00 | 0.00 | 0.00 | 37 | 1012.2 |
| 20260504023412 | 55 | 308 | 1.7 | 8.7 | 0.00 | 0.00 | 0.00 | 39 | 1012.1 |
| 20260504022408 | 55 | 280 | 0.9 | 7.0 | 0.00 | 0.00 | 0.00 | 40 | 1012.0 |
| 20260504021344 | 55 | 323 | 0.0 | 8.7 | 0.00 | 0.00 | 0.00 | 40 | 1012.1 |
| 20260504020352 | 55 | 318 | 0.9 | 8.7 | 0.00 | 0.00 | 0.00 | 40 | 1012.1 |
| 20260504015352 | 56 | 338 | 0.9 | 8.7 | 0.00 | 0.00 | 0.00 | 39 | 1012.1 |
| 20260504014349 | 56 | 275 | 0.0 | 11.3 | 0.00 | 0.00 | 0.00 | 38 | 1012.1 |
| 20260504013326 | 56 | 313 | 1.7 | 10.4 | 0.00 | 0.00 | 0.00 | 37 | 1011.9 |
| 20260504012324 | 57 | 47 | 0.9 | 8.7 | 0.00 | 0.00 | 0.00 | 37 | 1011.6 |
| 20260504011348 | 57 | 173 | 2.6 | 10.4 | 0.00 | 0.00 | 0.00 | 37 | 1011.4 |
| 20260504010326 | 57 | 279 | 1.7 | 11.3 | 0.00 | 0.00 | 0.00 | 37 | 1011.3 |
| 20260504005330 | 58 | 276 | 0.9 | 9.6 | 0.00 | 0.00 | 0.00 | 39 | 1011.3 |
| 20260504004333 | 58 | 279 | 1.7 | 12.2 | 0.00 | 0.00 | 0.00 | 38 | 1011.3 |
| 20260504003355 | 58 | 294 | 2.6 | 15.6 | 0.00 | 0.00 | 0.00 | 39 | 1011.2 |
| 20260504002337 | 58 | 133 | 0.9 | 10.4 | 0.00 | 0.00 | 0.00 | 39 | 1011.2 |
| 20260504001332 | 58 | 220 | 0.0 | 9.6 | 0.00 | 0.00 | 0.00 | 39 | 1011.1 |
| 20260504000357 | 58 | 290 | 0.9 | 9.6 | 0.00 | 0.00 | 0.00 | 39 | 1011.0 |
| 20260503235332 | 58 | 287 | 0.9 | 7.8 | 0.00 | 0.00 | 0.00 | 39 | 1010.9 |
| 20260503234329 | 59 | 236 | 0.9 | 7.8 | 0.00 | 0.00 | 0.00 | 39 | 1010.8 |
| 20260503233353 | 59 | 342 | 0.0 | 7.8 | 0.00 | 0.00 | 0.00 | 38 | 1010.7 |
| 20260503232330 | 59 | 294 | 1.7 | 13.0 | 0.00 | 0.00 | 0.00 | 37 | 1010.6 |
| 20260503231331 | 60 | 26 | 0.9 | 7.0 | 0.00 | 0.00 | 0.00 | 36 | 1010.5 |
| 20260503230338 | 61 | 23 | 0.9 | 10.4 | 0.00 | 0.00 | 0.00 | 35 | 1010.5 |
| 20260503225356 | 62 | 84 | 2.6 | 12.2 | 0.00 | 0.00 | 0.00 | 34 | 1010.2 |
| 20260503224340 | 62 | 277 | 1.7 | 12.2 | 0.00 | 0.00 | 0.00 | 34 | 1010.2 |
| 20260503223339 | 62 | 31 | 1.7 | 16.5 | 0.00 | 0.00 | 0.00 | 34 | 1010.2 |
| 20260503222329 | 62 | 273 | 1.7 | 10.4 | 0.00 | 0.00 | 0.00 | 34 | 1010.2 |
| 20260503221331 | 62 | 300 | 1.7 | 13.9 | 0.00 | 0.00 | 0.00 | 34 | 1010.1 |
| 20260503220338 | 62 | 254 | 3.5 | 15.6 | 0.00 | 0.00 | 0.00 | 34 | 1010.2 |
| 20260503215332 | 62 | 294 | 2.6 | 11.3 | 0.00 | 0.00 | 0.00 | 34 | 1010.1 |
| 20260503214356 | 62 | 297 | 1.7 | 16.5 | 0.00 | 0.00 | 0.00 | 35 | 1010.0 |
| 20260503213330 | 61 | 282 | 4.3 | 12.2 | 0.00 | 0.00 | 0.00 | 34 | 1010.0 |
| 20260503212354 | 61 | 232 | 2.6 | 11.3 | 0.00 | 0.00 | 0.00 | 35 | 1010.1 |
| 20260503211327 | 61 | 284 | 2.6 | 12.2 | 0.00 | 0.00 | 0.00 | 35 | 1010.1 |
| 20260503210332 | 61 | 297 | 3.5 | 15.6 | 0.00 | 0.00 | 0.00 | 35 | 1010.1 |
| 20260503205326 | 61 | 283 | 1.7 | 8.7 | 0.00 | 0.00 | 0.00 | 35 | 1010.0 |
| 20260503204349 | 62 | 328 | 0.9 | 11.3 | 0.00 | 0.00 | 0.00 | 34 | 1010.0 |
| 20260503203353 | 62 | 268 | 1.7 | 11.3 | 0.00 | 0.00 | 0.00 | 34 | 1010.0 |
| 20260503202328 | 62 | 317 | 0.9 | 10.4 | 0.00 | 0.00 | 0.00 | 34 | 1009.9 |
| 20260503201412 | 62 | 70 | 0.9 | 10.4 | 0.00 | 0.00 | 0.00 | 34 | 1009.9 |
| 20260503200351 | 64 | 294 | 1.7 | 10.4 | 0.00 | 0.00 | 0.00 | 32 | 1009.8 |
| 20260503195408 | 64 | 275 | 3.5 | 13.9 | 0.00 | 0.00 | 0.00 | 32 | 1009.7 |
| 20260503194335 | 64 | 292 | 2.6 | 14.8 | 0.00 | 0.00 | 0.00 | 32 | 1009.6 |
| 20260503193331 | 65 | 287 | 1.7 | 13.0 | 0.00 | 0.00 | 0.00 | 32 | 1009.6 |
| 20260503192326 | 67 | 344 | 4.3 | 10.4 | 0.00 | 0.00 | 0.00 | 30 | 1009.5 |
| 20260503191351 | 66 | 296 | 2.6 | 8.7 | 0.00 | 0.00 | 0.00 | 30 | 1009.6 |
| 20260503190329 | 67 | 265 | 0.9 | 10.4 | 0.00 | 0.00 | 0.00 | 30 | 1009.6 |
| 20260503185329 | 67 | 279 | 3.5 | 9.6 | 0.00 | 0.00 | 0.00 | 29 | 1009.6 |
| 20260503184411 | 67 | 298 | 2.6 | 13.9 | 0.00 | 0.00 | 0.00 | 30 | 1009.7 |
| 20260503183349 | 67 | 333 | 1.7 | 8.7 | 0.00 | 0.00 | 0.00 | 31 | 1009.5 |
| 20260503182351 | 67 | 317 | 2.6 | 10.4 | 0.00 | 0.00 | 0.00 | 31 | 1009.6 |
| 20260503181348 | 67 | 300 | 1.7 | 8.7 | 0.00 | 0.00 | 0.00 | 31 | 1009.6 |
| 20260503180353 | 67 | 324 | 3.5 | 13.9 | 0.00 | 0.00 | 0.00 | 31 | 1009.6 |
| 20260503175353 | 67 | 225 | 4.3 | 13.0 | 0.00 | 0.00 | 0.00 | 31 | 1009.8 |
| 20260503174331 | 67 | 291 | 2.6 | 13.0 | 0.00 | 0.00 | 0.00 | 31 | 1009.7 |
| 20260503173356 | 67 | 34 | 1.7 | 12.2 | 0.00 | 0.00 | 0.00 | 31 | 1009.6 |
| 20260503172331 | 67 | 298 | 1.7 | 10.4 | 0.00 | 0.00 | 0.00 | 31 | 1009.6 |
| 20260503171330 | 67 | 306 | 1.7 | 8.7 | 0.00 | 0.00 | 0.00 | 32 | 1009.5 |
| 20260503170332 | 66 | 320 | 3.5 | 11.3 | 0.00 | 0.00 | 0.00 | 34 | 1009.5 |
| 20260503150335 | 63 | 243 | 2.6 | 11.3 | 0.00 | 0.00 | 0.00 | 40 | 1009.2 |
| 20260503131334 | 53 | 275 | 0.0 | 1.7 | 0.00 | 0.00 | 0.00 | 49 | 1008.7 |
| 20260503130331 | 53 | 190 | 0.0 | 1.7 | 0.00 | 0.00 | 0.00 | 50 | 1008.7 |
| 20260503110325 | 52 | 206 | 0.0 | 0.9 | 0.00 | 0.00 | 0.00 | 47 | 1008.9 |
| 20260503090325 | 54 | 184 | 0.0 | 0.9 | 0.00 | 0.00 | 0.00 | 44 | 1009.3 |
| 20260503081401 | 55 | 180 | 0.0 | 0.9 | 0.00 | 0.00 | 0.00 | 43 | 1009.7 |